This demonstration page uses our WeatherBlox Daily Observations layout. Learn more.

38.89511, -77.03637

Hourly Observations for September 21, 2016

Temp ( °F °C ) Dew Point ( °F °C ) Humidity (%) Winds ( mph kmh ) Pressure ( in mb ) Visibility ( mi km ) Precip ( " mm )
12:52 am 00:52 Cloudy 75 23.9 71 21.7 88 88 NE 6 9 30.11 1020 8 12.87472 0 0
1:52 am 01:52 Mostly Cloudy 74 23.3 71 21.7 91 91 NNE 3 6 30.1 1019 9 14.48406 0 0
2:52 am 02:52 Cloudy 74 23.3 71 21.7 91 91 NE 3 6 30.11 1020 10 16.0934 0 0
3:52 am 03:52 Mostly Cloudy 75 23.9 69 20.6 82 82 NNE 7 11 30.11 1020 10 16.0934 0 0
4:52 am 04:52 Cloudy 74 23.3 69 20.6 85 85 NE 6 9 30.11 1020 10 16.0934 0 0
5:52 am 05:52 Cloudy 73 22.8 69 20.6 87 87 NNE 8 13 30.11 1020 10 16.0934 0 0
6:52 am 06:52 Cloudy 73 22.8 68 20 84 84 NNE 9 15 30.13 1020 10 16.0934 0 0
7:52 am 07:52 Cloudy 73 22.8 67 19.4 81 81 NNE 10 17 30.14 1021 10 16.0934 0 0
8:52 am 08:52 Cloudy 74 23.3 67 19.4 79 79 NNE 9 15 30.14 1021 10 16.0934 0 0
9:52 am 09:52 Cloudy 75 23.9 67 19.4 76 76 NE 9 15 30.16 1021 10 16.0934 0 0
10:52 am 10:52 Cloudy 77 25 67 19.4 71 71 NE 8 13 30.17 1022 10 16.0934 0 0
11:52 am 11:52 Cloudy 79 26.1 67 19.4 67 67 NNE 10 17 30.16 1022 10 16.0934 0 0
12:52 pm 12:52 Cloudy 81 27.2 67 19.4 62 62 NE 10 17 30.15 1021 10 16.0934 0 0
1:52 pm 13:52 Partly Cloudy 82 27.8 67 19.4 60 60 ENE 8 13 30.14 1021 10 16.0934 0 0
2:52 pm 14:52 Cloudy 82 27.8 67 19.4 60 60 NE 8 13 30.13 1020 10 16.0934 0 0
3:52 pm 15:52 Cloudy 82 27.8 68 20 63 63 E 7 11 30.12 1020 10 16.0934 0 0
4:52 pm 16:52 Mostly Cloudy 81 27.2 68 20 65 65 E 10 17 30.13 1020 10 16.0934 0 0
5:52 pm 17:52 Mostly Cloudy 80 26.7 69 20.6 69 69 NE 9 15 30.13 1020 10 16.0934 0 0
6:52 pm 18:52 Mostly Cloudy 80 26.7 67 19.4 64 64 ENE 9 15 30.12 1020 10 16.0934 0 0
7:52 pm 19:52 Mostly Cloudy 79 26.1 67 19.4 67 67 NE 8 13 30.13 1020 10 16.0934 0 0
8:52 pm 20:52 Mostly Cloudy 78 25.6 67 19.4 69 69 NE 7 11 30.14 1021 10 16.0934 0 0
9:52 pm 21:52 Cloudy 77 25 67 19.4 71 71 N 7 11 30.15 1021 10 16.0934 0 0
10:52 pm 22:52 Cloudy 77 25 67 19.4 71 71 NE 6 9 30.16 1022 10 16.0934 0 0
11:52 pm 23:52 Partly Cloudy 75 23.9 68 20 79 79 ENE 7 11 30.15 1021 10 16.0934 0 0

Powered by AerisWeather